| time (UTC) | temp C | wind direction | speed KPH | gust KPH | rain 1hr cm | rain 24hr cm | rain mn cm | humidity % | barometer mb |
| 20260506061519 | 8 | 2 | 1.6 | 14.5 | 0.00 | 0.00 | 0.00 | 96 | 1008.2 |
| 20260506060516 | 8 | 5 | 1.6 | 6.4 | 0.00 | 0.00 | 0.00 | 96 | 1008.2 |
| 20260506050601 | 8 | 19 | 3.2 | 11.3 | 0.00 | 0.00 | 0.00 | 95 | 1008.2 |
| 20260506044556 | 8 | 9 | 3.2 | 14.5 | 0.00 | 0.00 | 0.00 | 96 | 1008.1 |
| 20260506043553 | 8 | 14 | 1.6 | 6.4 | 0.00 | 0.00 | 0.00 | 95 | 1008.1 |
| 20260506042551 | 8 | 358 | 4.8 | 14.5 | 0.00 | 0.00 | 0.00 | 95 | 1008.1 |
| 20260506041548 | 8 | 7 | 3.2 | 6.4 | 0.00 | 0.00 | 0.00 | 95 | 1008.1 |
| 20260506040545 | 8 | 5 | 3.2 | 11.3 | 0.00 | 0.00 | 0.00 | 95 | 1008.1 |
| 20260506035543 | 8 | 343 | 3.2 | 11.3 | 0.00 | 0.00 | 0.00 | 95 | 1008.1 |
| 20260506034540 | 8 | 17 | 3.2 | 12.9 | 0.00 | 0.00 | 0.00 | 95 | 1008.1 |
| 20260506033538 | 8 | 12 | 3.2 | 12.9 | 0.00 | 0.00 | 0.00 | 95 | 1008.1 |
| 20260506032535 | 8 | 38 | 3.2 | 9.7 | 0.00 | 0.00 | 0.00 | 95 | 1008.2 |
| 20260506031532 | 8 | 15 | 4.8 | 17.7 | 0.00 | 0.00 | 0.00 | 95 | 1008.3 |
| 20260506030530 | 8 | 23 | 4.8 | 17.7 | 0.00 | 0.00 | 0.00 | 95 | 1008.4 |
| 20260506025527 | 8 | 4 | 4.8 | 12.9 | 0.00 | 0.00 | 0.00 | 95 | 1008.4 |
| 20260506024525 | 8 | 352 | 3.2 | 9.7 | 0.00 | 0.00 | 0.00 | 95 | 1008.4 |
| 20260506023522 | 8 | 10 | 3.2 | 12.9 | 0.00 | 0.00 | 0.00 | 95 | 1008.4 |
| 20260506022520 | 8 | 4 | 4.8 | 12.9 | 0.00 | 0.00 | 0.00 | 95 | 1008.5 |
| 20260506021517 | 8 | 23 | 4.8 | 11.3 | 0.00 | 0.00 | 0.00 | 95 | 1008.5 |
| 20260506020515 | 8 | 10 | 4.8 | 12.9 | 0.00 | 0.00 | 0.00 | 95 | 1008.6 |
| 20260506015612 | 8 | 26 | 4.8 | 12.9 | 0.00 | 0.00 | 0.00 | 95 | 1008.7 |
| 20260506014610 | 8 | 37 | 4.8 | 14.5 | 0.00 | 0.00 | 0.00 | 95 | 1008.7 |
| 20260506013607 | 8 | 355 | 3.2 | 14.5 | 0.00 | 0.00 | 0.00 | 95 | 1008.7 |
| 20260506012604 | 8 | 356 | 3.2 | 11.3 | 0.00 | 0.00 | 0.00 | 95 | 1008.8 |
| 20260506011602 | 8 | 6 | 3.2 | 6.4 | 0.00 | 0.00 | 0.00 | 95 | 1009.0 |
| 20260506010559 | 8 | 7 | 4.8 | 14.5 | 0.00 | 0.00 | 0.00 | 95 | 1008.9 |
| 20260506005557 | 8 | 25 | 3.2 | 11.3 | 0.00 | 0.00 | 0.00 | 95 | 1008.9 |
| 20260506004554 | 8 | 18 | 3.2 | 12.9 | 0.00 | 0.00 | 0.00 | 95 | 1009.0 |
| 20260506003552 | 8 | 11 | 3.2 | 9.7 | 0.00 | 0.00 | 0.00 | 95 | 1009.2 |
| 20260506002549 | 8 | 357 | 3.2 | 11.3 | 0.00 | 0.00 | 0.00 | 95 | 1009.3 |
| 20260506001546 | 8 | 8 | 1.6 | 12.9 | 0.00 | 0.00 | 0.00 | 95 | 1009.3 |
| 20260506000544 | 8 | 0 | 3.2 | 9.7 | 0.00 | 0.00 | 0.00 | 94 | 1009.4 |
| 20260505235541 | 8 | 353 | 1.6 | 9.7 | 0.00 | 0.00 | 0.00 | 94 | 1009.5 |
| 20260505234539 | 8 | 4 | 6.4 | 17.7 | 0.00 | 0.00 | 0.00 | 94 | 1009.7 |
| 20260505233536 | 8 | 20 | 3.2 | 6.4 | 0.00 | 0.00 | 0.00 | 94 | 1009.6 |
| 20260505232534 | 8 | 358 | 3.2 | 11.3 | 0.00 | 0.00 | 0.00 | 94 | 1009.7 |
| 20260505231531 | 9 | 10 | 1.6 | 6.4 | 0.00 | 0.00 | 0.00 | 94 | 1009.6 |
| 20260505230529 | 9 | 4 | 3.2 | 14.5 | 0.00 | 0.00 | 0.00 | 94 | 1009.7 |
| 20260505225526 | 9 | 2 | 4.8 | 11.3 | 0.00 | 0.00 | 0.00 | 94 | 1009.8 |
| 20260505224523 | 9 | 14 | 1.6 | 6.4 | 0.00 | 0.00 | 0.00 | 94 | 1009.9 |
| 20260505223521 | 9 | 351 | 3.2 | 11.3 | 0.00 | 0.00 | 0.00 | 94 | 1009.9 |
| 20260505222518 | 9 | 14 | 1.6 | 9.7 | 0.00 | 0.00 | 0.00 | 94 | 1010.0 |
| 20260505221516 | 9 | 8 | 3.2 | 12.9 | 0.00 | 0.00 | 0.00 | 94 | 1010.0 |
| 20260505220613 | 9 | 14 | 1.6 | 12.9 | 0.00 | 0.00 | 0.00 | 94 | 1010.0 |
| 20260505215611 | 9 | 23 | 3.2 | 6.4 | 0.00 | 0.00 | 0.00 | 94 | 1010.1 |
| 20260505214608 | 9 | 2 | 3.2 | 6.4 | 0.00 | 0.00 | 0.00 | 94 | 1010.1 |
| 20260505213605 | 9 | 331 | 1.6 | 6.4 | 0.00 | 0.00 | 0.00 | 94 | 1010.2 |
| 20260505212603 | 9 | 10 | 3.2 | 9.7 | 0.00 | 0.00 | 0.00 | 94 | 1010.3 |
| 20260505211600 | 9 | 1 | 4.8 | 11.3 | 0.00 | 0.00 | 0.00 | 94 | 1010.4 |
| 20260505210557 | 9 | 360 | 1.6 | 9.7 | 0.00 | 0.00 | 0.00 | 95 | 1010.4 |
| 20260505205555 | 9 | 7 | 1.6 | 9.7 | 0.00 | 0.00 | 0.00 | 95 | 1010.5 |
| 20260505204552 | 9 | 7 | 1.6 | 6.4 | 0.00 | 0.00 | 0.00 | 95 | 1010.5 |
| 20260505203549 | 9 | 7 | 1.6 | 6.4 | 0.00 | 0.00 | 0.00 | 95 | 1010.5 |
| 20260505202547 | 9 | 8 | 3.2 | 6.4 | 0.00 | 0.00 | 0.00 | 95 | 1010.5 |
| 20260505201544 | 9 | 21 | 1.6 | 9.7 | 0.00 | 0.00 | 0.00 | 95 | 1010.5 |
| 20260505200542 | 9 | 348 | 3.2 | 9.7 | 0.00 | 0.00 | 0.00 | 95 | 1010.5 |
| 20260505195539 | 9 | 6 | 3.2 | 9.7 | 0.00 | 0.00 | 0.00 | 95 | 1010.5 |
| 20260505194537 | 10 | 20 | 3.2 | 12.9 | 0.00 | 0.00 | 0.00 | 95 | 1010.4 |
| 20260505193534 | 10 | 33 | 4.8 | 9.7 | 0.00 | 0.00 | 0.00 | 95 | 1010.4 |
| 20260505192532 | 10 | 21 | 4.8 | 14.5 | 0.00 | 0.00 | 0.00 | 94 | 1010.4 |
| 20260505191529 | 10 | 19 | 3.2 | 11.3 | 0.00 | 0.00 | 0.00 | 94 | 1010.3 |
| 20260505190526 | 10 | 16 | 3.2 | 14.5 | 0.00 | 0.00 | 0.00 | 94 | 1010.3 |
| 20260505185524 | 10 | 13 | 3.2 | 11.3 | 0.00 | 0.00 | 0.00 | 94 | 1010.2 |
| 20260505184521 | 10 | 15 | 3.2 | 12.9 | 0.00 | 0.00 | 0.00 | 94 | 1010.2 |
| 20260505183519 | 10 | 16 | 4.8 | 11.3 | 0.00 | 0.00 | 0.00 | 94 | 1010.3 |
| 20260505182516 | 10 | 15 | 3.2 | 11.3 | 0.00 | 0.00 | 0.00 | 94 | 1010.2 |
| 20260505181614 | 10 | 29 | 1.6 | 9.7 | 0.00 | 0.00 | 0.00 | 93 | 1010.3 |
| 20260505180611 | 10 | 20 | 1.6 | 9.7 | 0.00 | 0.00 | 0.00 | 93 | 1010.2 |
| 20260505175608 | 10 | 43 | 4.8 | 11.3 | 0.00 | 0.00 | 0.00 | 93 | 1010.4 |
| 20260505174606 | 10 | 14 | 4.8 | 9.7 | 0.00 | 0.00 | 0.00 | 93 | 1010.3 |
| 20260505173603 | 10 | 27 | 4.8 | 12.9 | 0.00 | 0.00 | 0.00 | 93 | 1010.3 |
| 20260505172601 | 10 | 7 | 4.8 | 14.5 | 0.00 | 0.00 | 0.00 | 93 | 1010.4 |
| 20260505171558 | 10 | 36 | 3.2 | 9.7 | 0.00 | 0.00 | 0.00 | 92 | 1010.3 |
| 20260505170556 | 10 | 18 | 1.6 | 6.4 | 0.00 | 0.00 | 0.00 | 92 | 1010.4 |
| 20260505165553 | 10 | 0 | 3.2 | 9.7 | 0.00 | 0.00 | 0.00 | 91 | 1010.5 |
| 20260505164551 | 10 | 14 | 4.8 | 12.9 | 0.00 | 0.00 | 0.00 | 91 | 1010.4 |
| 20260505163548 | 10 | 42 | 4.8 | 12.9 | 0.00 | 0.00 | 0.00 | 91 | 1010.6 |
| 20260505162545 | 10 | 25 | 3.2 | 17.7 | 0.00 | 0.00 | 0.00 | 90 | 1010.5 |
| 20260505161543 | 10 | 27 | 3.2 | 9.7 | 0.00 | 0.00 | 0.00 | 90 | 1010.6 |
| 20260505160540 | 10 | 5 | 4.8 | 11.3 | 0.00 | 0.00 | 0.00 | 90 | 1010.7 |
| 20260505152530 | 10 | 359 | 4.8 | 14.5 | 0.00 | 0.00 | 0.00 | 90 | 1010.8 |
| 20260505151527 | 10 | 13 | 8.0 | 17.7 | 0.00 | 0.00 | 0.00 | 91 | 1010.9 |
| 20260505150525 | 10 | 352 | 4.8 | 11.3 | 0.00 | 0.00 | 0.00 | 92 | 1011.0 |
| 20260505140610 | 10 | 13 | 1.6 | 6.4 | 0.00 | 0.00 | 0.00 | 89 | 1011.2 |
| 20260505124549 | 10 | 38 | 3.2 | 9.7 | 0.00 | 0.00 | 0.00 | 92 | 1011.7 |
| 20260505123547 | 10 | 18 | 6.4 | 14.5 | 0.00 | 0.00 | 0.00 | 92 | 1011.9 |
| 20260505122544 | 10 | 21 | 6.4 | 17.7 | 0.00 | 0.00 | 0.00 | 92 | 1011.8 |
| 20260505121541 | 10 | 32 | 6.4 | 17.7 | 0.00 | 0.00 | 0.00 | 92 | 1011.9 |
| 20260505120539 | 9 | 25 | 3.2 | 9.7 | 0.00 | 0.00 | 0.00 | 92 | 1011.8 |
| 20260505115536 | 9 | 32 | 4.8 | 11.3 | 0.00 | 0.00 | 0.00 | 92 | 1012.0 |
| 20260505114534 | 9 | 6 | 4.8 | 14.5 | 0.00 | 0.00 | 0.00 | 91 | 1011.9 |
| 20260505113531 | 9 | 29 | 4.8 | 12.9 | 0.00 | 0.00 | 0.00 | 91 | 1012.0 |
| 20260505112529 | 9 | 31 | 6.4 | 17.7 | 0.00 | 0.00 | 0.00 | 90 | 1012.1 |
| 20260505111526 | 9 | 10 | 8.0 | 17.7 | 0.00 | 0.00 | 0.00 | 90 | 1012.1 |
| 20260505110523 | 9 | 31 | 4.8 | 12.9 | 0.00 | 0.00 | 0.00 | 91 | 1012.1 |
| 20260505101611 | 8 | 5 | 6.4 | 14.5 | 0.00 | 0.00 | 0.00 | 92 | 1012.3 |
| 20260505100608 | 9 | 26 | 6.4 | 17.7 | 0.00 | 0.00 | 0.00 | 92 | 1012.4 |
| 20260505095606 | 9 | 13 | 4.8 | 14.5 | 0.00 | 0.00 | 0.00 | 91 | 1012.3 |
| 20260505094603 | 9 | 20 | 6.4 | 17.7 | 0.00 | 0.00 | 0.00 | 91 | 1012.4 |
| 20260505093600 | 8 | 22 | 4.8 | 12.9 | 0.00 | 0.00 | 0.00 | 91 | 1012.4 |
| 20260505092558 | 8 | 27 | 8.0 | 20.9 | 0.00 | 0.00 | 0.00 | 91 | 1012.4 |
| 20260505091555 | 8 | 2 | 4.8 | 12.9 | 0.00 | 0.00 | 0.00 | 91 | 1012.4 |
| 20260505090553 | 8 | 9 | 6.4 | 17.7 | 0.00 | 0.00 | 0.00 | 92 | 1012.3 |
| 20260505085550 | 8 | 17 | 8.0 | 24.1 | 0.00 | 0.00 | 0.00 | 92 | 1012.4 |
| 20260505084548 | 8 | 23 | 6.4 | 17.7 | 0.00 | 0.00 | 0.00 | 93 | 1012.4 |
| 20260505083545 | 8 | 19 | 8.0 | 17.7 | 0.00 | 0.00 | 0.00 | 93 | 1012.5 |
| 20260505082542 | 8 | 0 | 3.2 | 11.3 | 0.00 | 0.00 | 0.00 | 94 | 1012.5 |
| 20260505081540 | 8 | 348 | 4.8 | 17.7 | 0.00 | 0.00 | 0.00 | 94 | 1012.4 |
| 20260505080537 | 8 | 28 | 4.8 | 17.7 | 0.00 | 0.00 | 0.00 | 94 | 1012.3 |
| 20260505075535 | 8 | 19 | 6.4 | 17.7 | 0.00 | 0.00 | 0.00 | 95 | 1012.2 |
| 20260505074532 | 8 | 0 | 6.4 | 17.7 | 0.00 | 0.00 | 0.00 | 95 | 1012.3 |
| 20260505073530 | 8 | 28 | 4.8 | 17.7 | 0.00 | 0.00 | 0.00 | 95 | 1012.4 |
| 20260505072527 | 8 | 9 | 3.2 | 6.4 | 0.00 | 0.00 | 0.00 | 95 | 1012.4 |
| 20260505071525 | 8 | 1 | 3.2 | 11.3 | 0.00 | 0.00 | 0.00 | 95 | 1012.4 |
| 20260505070522 | 8 | 351 | 4.8 | 17.7 | 0.00 | 0.00 | 0.00 | 95 | 1012.4 |